When you browse on this site, cookies collect data to enhance your experience and personalize the content and advertising you see.
Visit our Privacy Policy to learn more. By continuing to use the site, you agree to this use of cookies and data.
  • In Schweiz
  • Länderverzeichnis
  • Für 7 Tage
  • Wassertemperatur
  • Wetterkarte
  • Widgets
  • user-avatar
    Anmelden

    Stündliche Wetter Tarin Kowt

    Heute, 14 Oktober, Montag

    Zeit Temperatur Niederschläge Wind Luftdruck Luftfeuchtigkeit
    00:00 +12°C° 0 mm 1 m/S 618 mmHg 27%
    01:00 +11°C° 0 mm 1 m/S 617 mmHg 28%
    02:00 +11°C° 0 mm 1 m/S 617 mmHg 31%
    03:00 +11°C° 0 mm 1 m/S 617 mmHg 34%
    04:00 +10°C° 0 mm 1 m/S 617 mmHg 39%
    05:00 +12°C° 0 mm 1 m/S 618 mmHg 33%
    06:00 +14°C° 0 mm 1 m/S 619 mmHg 27%
    07:00 +16°C° 0 mm 1 m/S 620 mmHg 21%
    08:00 +19°C° 0 mm 1 m/S 621 mmHg 18%
    09:00 +21°C° 0 mm 1 m/S 622 mmHg 16%
    10:00 +23°C° 0 mm 1 m/S 622 mmHg 13%
    11:00 +24°C° 0 mm 2 m/S 622 mmHg 12%
    12:00 +25°C° 0 mm 2 m/S 622 mmHg 11%
    13:00 +26°C° 0 mm 3 m/S 621 mmHg 10%
    14:00 +26°C° 0 mm 3 m/S 621 mmHg 10%
    15:00 +25°C° 0 mm 4 m/S 621 mmHg 10%
    16:00 +25°C° 0 mm 4 m/S 620 mmHg 11%
    17:00 +21°C° 0 mm 4 m/S 620 mmHg 15%
    18:00 +18°C° 0 mm 3 m/S 619 mmHg 19%
    19:00 +15°C° 0 mm 2 m/S 618 mmHg 23%
    20:00 +13°C° 0 mm 2 m/S 618 mmHg 25%
    21:00 +12°C° 0 mm 1 m/S 618 mmHg 27%
    22:00 +11°C° 0 mm 1 m/S 618 mmHg 30%
    23:00 +10°C° 0 mm 0 m/S 618 mmHg 31%

    Morgen, 15 Oktober, Dienstag

    Zeit Temperatur Niederschläge Wind Luftdruck Luftfeuchtigkeit
    00:00 +9°C° 0 mm 0 m/S 617 mmHg 31%
    01:00 +9°C° 0 mm 0 m/S 617 mmHg 32%
    02:00 +8°C° 0 mm 0 m/S 617 mmHg 34%
    03:00 +8°C° 0 mm 0 m/S 617 mmHg 36%
    04:00 +8°C° 0 mm 0 m/S 617 mmHg 39%
    05:00 +10°C° 0 mm 0 m/S 618 mmHg 33%
    06:00 +12°C° 0 mm 0 m/S 620 mmHg 28%
    07:00 +14°C° 0 mm 0 m/S 621 mmHg 23%
    08:00 +16°C° 0 mm 0 m/S 621 mmHg 20%
    09:00 +20°C° 0 mm 1 m/S 622 mmHg 18%
    10:00 +21°C° 0 mm 1 m/S 622 mmHg 15%
    11:00 +23°C° 0 mm 2 m/S 622 mmHg 14%
    12:00 +24°C° 0 mm 2 m/S 622 mmHg 13%
    13:00 +25°C° 0 mm 3 m/S 622 mmHg 12%
    14:00 +24°C° 0 mm 3 m/S 621 mmHg 13%
    15:00 +24°C° 0 mm 3 m/S 621 mmHg 14%
    16:00 +22°C° 0 mm 3 m/S 621 mmHg 15%
    17:00 +19°C° 0 mm 3 m/S 620 mmHg 20%
    18:00 +15°C° 0 mm 2 m/S 619 mmHg 26%
    19:00 +12°C° 0 mm 1 m/S 618 mmHg 31%
    20:00 +11°C° 0 mm 1 m/S 618 mmHg 33%
    21:00 +11°C° 0 mm 1 m/S 618 mmHg 35%
    22:00 +9°C° 0 mm 0 m/S 618 mmHg 36%
    23:00 +9°C° 0 mm 0 m/S 618 mmHg 37%

    übermorgen, 16 Oktober, Mittwoch

    Zeit Temperatur Niederschläge Wind Luftdruck Luftfeuchtigkeit
    00:00 +9°C° 0 mm 0 m/S 618 mmHg 37%
    01:00 +8°C° 0 mm 0 m/S 618 mmHg 37%
    02:00 +8°C° 0 mm 0 m/S 618 mmHg 37%
    03:00 +8°C° 0 mm 0 m/S 617 mmHg 37%
    04:00 +9°C° 0 mm 1 m/S 617 mmHg 37%
    05:00 +11°C° 0 mm 1 m/S 618 mmHg 33%
    06:00 +12°C° 0 mm 0 m/S 619 mmHg 29%
    07:00 +14°C° 0 mm 0 m/S 621 mmHg 25%
    08:00 +18°C° 0 mm 1 m/S 621 mmHg 22%
    09:00 +20°C° 0 mm 1 m/S 622 mmHg 19%
    10:00 +22°C° 0 mm 1 m/S 622 mmHg 16%
    11:00 +23°C° 0 mm 2 m/S 622 mmHg 15%
    12:00 +24°C° 0 mm 3 m/S 622 mmHg 14%
    13:00 +23°C° 0 mm 4 m/S 621 mmHg 13%
    14:00 +23°C° 0 mm 4 m/S 621 mmHg 14%
    15:00 +22°C° 0 mm 4 m/S 620 mmHg 15%
    16:00 +21°C° 0 mm 4 m/S 620 mmHg 16%
    17:00 +18°C° 0 mm 3 m/S 619 mmHg 21%
    18:00 +15°C° 0 mm 2 m/S 618 mmHg 27%
    19:00 +11°C° 0 mm 1 m/S 617 mmHg 32%
    20:00 +11°C° 0 mm 1 m/S 617 mmHg 34%
    21:00 +9°C° 0 mm 0 m/S 617 mmHg 35%
    22:00 +8°C° 0 mm 0 m/S 617 mmHg 37%
    23:00 +8°C° 0 mm 0 m/S 617 mmHg 38%

    17 Oktober, Donnerstag

    Zeit Temperatur Niederschläge Wind Luftdruck Luftfeuchtigkeit
    00:00 +8°C° 0 mm 0 m/S 617 mmHg 40%
    01:00 +7°C° 0 mm 0 m/S 616 mmHg 41%
    02:00 +7°C° 0 mm 0 m/S 616 mmHg 47%
    03:00 +7°C° 0 mm 0 m/S 616 mmHg 53%
    04:00 +6°C° 0 mm 0 m/S 616 mmHg 58%
    05:00 +9°C° 0 mm 0 m/S 617 mmHg 48%
    06:00 +11°C° 0 mm 0 m/S 618 mmHg 38%
    07:00 +13°C° 0 mm 0 m/S 619 mmHg 28%
    08:00 +16°C° 0 mm 1 m/S 620 mmHg 24%
    09:00 +18°C° 0 mm 1 m/S 621 mmHg 21%
    10:00 +20°C° 0 mm 1 m/S 621 mmHg 18%
    11:00 +20°C° 0 mm 2 m/S 621 mmHg 16%
    12:00 +21°C° 0 mm 3 m/S 620 mmHg 15%
    13:00 +22°C° 0 mm 4 m/S 620 mmHg 13%
    14:00 +21°C° 0 mm 4 m/S 620 mmHg 14%
    15:00 +21°C° 0 mm 4 m/S 620 mmHg 14%
    16:00 +20°C° 0 mm 4 m/S 619 mmHg 14%
    17:00 +17°C° 0 mm 3 m/S 619 mmHg 17%
    18:00 +15°C° 0 mm 2 m/S 618 mmHg 21%
    19:00 +12°C° 0 mm 1 m/S 617 mmHg 24%
    20:00 +11°C° 0 mm 1 m/S 617 mmHg 25%
    21:00 +10°C° 0 mm 1 m/S 617 mmHg 26%
    22:00 +9°C° 0 mm 0 m/S 617 mmHg 26%
    23:00 +8°C° 0 mm 0 m/S 616 mmHg 28%

    18 Oktober, Freitag

    Zeit Temperatur Niederschläge Wind Luftdruck Luftfeuchtigkeit
    00:00 +8°C° 0 mm 0 m/S 616 mmHg 29%
    01:00 +8°C° 0 mm 1 m/S 616 mmHg 30%
    02:00 +8°C° 0 mm 1 m/S 616 mmHg 31%
    03:00 +8°C° 0 mm 1 m/S 616 mmHg 32%
    04:00 +8°C° 0 mm 1 m/S 615 mmHg 33%
    05:00 +10°C° 0 mm 1 m/S 617 mmHg 30%
    06:00 +12°C° 0 mm 1 m/S 618 mmHg 27%
    07:00 +13°C° 0 mm 1 m/S 619 mmHg 24%
    08:00 +15°C° 0 mm 1 m/S 620 mmHg 21%
    09:00 +19°C° 0 mm 1 m/S 620 mmHg 18%
    10:00 +21°C° 0 mm 1 m/S 621 mmHg 16%
    11:00 +21°C° 0 mm 1 m/S 621 mmHg 15%
    12:00 +21°C° 0 mm 2 m/S 621 mmHg 14%
    13:00 +22°C° 0 mm 3 m/S 620 mmHg 13%
    14:00 +22°C° 0 mm 3 m/S 620 mmHg 14%
    15:00 +22°C° 0 mm 3 m/S 620 mmHg 14%
    16:00 +21°C° 0 mm 4 m/S 619 mmHg 14%
    17:00 +18°C° 0 mm 3 m/S 618 mmHg 18%
    18:00 +15°C° 0 mm 2 m/S 618 mmHg 22%
    19:00 +12°C° 0 mm 2 m/S 617 mmHg 26%
    20:00 +12°C° 0 mm 1 m/S 617 mmHg 28%
    21:00 +11°C° 0 mm 1 m/S 617 mmHg 30%
    22:00 +10°C° 0 mm 1 m/S 617 mmHg 32%
    23:00 +10°C° 0 mm 1 m/S 617 mmHg 32%

    19 Oktober, Samstag

    Zeit Temperatur Niederschläge Wind Luftdruck Luftfeuchtigkeit
    00:00 +9°C° 0 mm 1 m/S 617 mmHg 33%
    01:00 +8°C° 0 mm 0 m/S 617 mmHg 34%
    02:00 +9°C° 0 mm 1 m/S 616 mmHg 39%
    03:00 +9°C° 0 mm 1 m/S 616 mmHg 44%
    04:00 +8°C° 0 mm 1 m/S 616 mmHg 48%
    05:00 +10°C° 0 mm 1 m/S 618 mmHg 40%
    06:00 +12°C° 0 mm 1 m/S 619 mmHg 32%
    07:00 +14°C° 0 mm 1 m/S 620 mmHg 24%
    08:00 +16°C° 0 mm 1 m/S 621 mmHg 21%
    09:00 +19°C° 0 mm 1 m/S 622 mmHg 18%
    10:00 +21°C° 0 mm 1 m/S 622 mmHg 15%
    11:00 +21°C° 0 mm 2 m/S 622 mmHg 14%
    12:00 +22°C° 0 mm 3 m/S 622 mmHg 12%
    13:00 +24°C° 0 mm 3 m/S 622 mmHg 11%
    14:00 +22°C° 0 mm 4 m/S 621 mmHg 11%
    15:00 +22°C° 0 mm 4 m/S 621 mmHg 11%
    16:00 +22°C° 0 mm 4 m/S 621 mmHg 11%
    17:00 +18°C° 0 mm 3 m/S 620 mmHg 14%
    18:00 +15°C° 0 mm 2 m/S 619 mmHg 17%
    19:00 +11°C° 0 mm 1 m/S 618 mmHg 20%
    20:00 +11°C° 0 mm 1 m/S 617 mmHg 20%
    21:00 +9°C° 0 mm 0 m/S 617 mmHg 20%
    22:00 +9°C° 0 mm 0 m/S 617 mmHg 20%
    23:00 +8°C° 0 mm 0 m/S 617 mmHg 20%
    Mehr zeigen